Date,TemperatureHighF,TemperatureAvgF,TemperatureLowF,DewpointHighF,DewpointAvgF,DewpointLowF,HumidityHigh,HumidityAvg,HumidityLow,PressureMaxIn,PressureMinIn,WindSpeedMaxMPH,WindSpeedAvgMPH,GustSpeedMaxMPH,PrecipitationSumIn
2013-3-31,70.0,62.0,58.5,47.1,44.4,43.4,60,53,44,29.60,29.53,4,2,4,0.00
2013-4-1,104.4,83.5,63.0,57.5,49.6,41.9,65,35,15,29.64,29.54,18,5,18,0.00
2013-4-2,110.3,90.8,66.7,57.8,50.1,42.9,58,29,14,29.66,29.57,17,6,17,0.00
2013-4-3,98.1,79.0,57.7,60.4,53.7,47.4,76,46,23,29.66,29.59,30,12,30,0.00
2013-4-4,86.9,69.5,53.6,56.1,50.0,46.7,81,52,34,29.70,29.57,23,8,23,0.00
2013-4-5,77.9,58.6,53.4,54.3,50.8,48.8,87,76,36,29.97,29.71,17,5,17,0.00
2013-4-6,73.4,60.2,53.8,58.4,52.6,45.8,95,77,54,30.02,29.91,21,8,21,0.00
2013-4-7,69.6,58.4,50.5,56.4,50.4,44.4,99,76,52,29.97,29.59,23,7,23,0.01
2013-4-8,72.7,59.7,48.9,51.2,31.9,21.3,99,41,15,29.85,29.58,28,12,28,0.04
2013-4-9,82.8,66.8,55.8,35.3,31.0,27.3,35,27,16,29.94,29.85,30,11,30,0.02
2013-4-10,94.6,77.7,62.6,59.5,46.2,34.3,41,33,26,30.00,29.77,24,7,24,0.00
2013-4-11,86.9,69.3,48.9,53.3,42.3,32.6,88,44,16,29.84,29.63,22,5,22,0.00
2013-4-12,87.3,67.2,45.7,57.4,46.7,38.8,90,53,24,29.97,29.59,12,2,12,0.01
2013-4-13,86.2,65.1,46.9,57.7,48.7,40.8,86,58,33,30.03,29.89,13,2,13,0.00
2013-4-14,78.4,62.0,44.2,53.3,42.2,30.2,82,53,22,30.06,29.89,28,7,28,0.00
2013-4-15,73.4,58.1,44.8,53.4,39.2,30.5,83,52,26,30.08,29.94,21,5,21,0.00
2013-4-16,70.9,59.6,50.9,31.3,23.8,17.5,46,26,14,30.33,30.08,23,10,25,0.00
2013-4-17,72.1,61.4,52.7,30.0,24.1,17.1,38,25,13,30.44,30.33,24,9,24,0.00
2013-4-18,80.8,66.9,55.0,44.1,31.6,22.2,56,28,17,30.43,30.30,20,5,20,0.00
2013-4-19,90.0,67.8,47.7,56.2,47.3,39.8,77,51,29,30.39,30.16,14,3,14,0.00
2013-4-20,91.0,72.6,59.2,51.6,39.4,32.0,53,32,15,30.26,30.08,21,6,21,0.00
2013-4-21,92.7,72.2,50.2,52.6,43.8,35.5,77,41,17,30.19,30.05,21,4,21,0.00
2013-4-22,91.6,76.2,59.9,48.0,37.9,20.0,61,29,11,30.11,29.98,20,7,20,0.00
2013-4-23,88.9,73.9,58.3,44.0,25.9,13.3,48,18,10,30.10,29.97,24,9,24,0.00
2013-4-24,91.6,68.8,50.0,53.1,39.5,26.6,72,41,13,30.01,29.89,24,7,24,0.00
2013-4-25,78.8,64.0,49.6,54.9,47.6,41.2,77,57,41,30.20,29.98,24,8,24,0.00
2013-4-26,87.4,66.0,47.7,59.9,50.9,43.6,89,62,37,30.36,30.20,14,3,14,0.00
2013-4-27,93.7,69.7,50.5,62.5,53.0,45.3,85,59,31,30.36,30.14,14,3,14,0.00
2013-4-28,95.4,73.7,53.6,60.4,53.4,47.9,86,54,23,30.19,29.98,12,3,12,0.00
2013-4-29,96.4,81.6,64.4,58.1,48.7,39.6,71,34,19,30.02,29.85,17,5,17,0.00
2013-4-30,87.4,76.8,62.8,52.2,28.1,13.7,58,20,10,30.02,29.90,26,10,26,0.00
2013-5-1,89.1,76.4,64.8,31.9,20.5,11.6,15,12,10,30.23,30.01,31,13,31,0.05
2013-5-2,98.1,79.7,65.3,44.3,27.3,11.2,35,16,10,30.33,30.19,22,6,22,0.00
2013-5-3,97.9,76.0,54.1,50.9,42.7,-18.3,59,33,14,30.19,29.89,13,3,13,0.00
2013-5-4,91.8,78.4,60.8,49.0,38.5,28.4,65,27,12,29.90,29.65,24,8,24,0.00
2013-5-5,78.3,66.1,56.7,51.9,48.3,44.2,72,54,37,29.95,29.69,19,7,19,0.00
2013-5-6,76.8,64.0,57.0,60.0,53.8,47.5,99,72,46,30.10,29.95,18,4,18,0.53
2013-5-7,78.6,65.6,56.5,58.9,55.6,49.9,99,73,47,30.17,30.09,16,4,16,0.01
2013-5-8,79.9,65.4,56.5,58.9,53.9,50.6,87,68,47,30.24,30.15,18,6,18,0.00
2013-5-9,85.8,67.2,52.9,62.7,55.2,49.7,92,68,45,30.27,30.14,21,5,21,0.00
2013-5-10,92.5,71.1,53.2,67.1,57.2,49.8,91,64,40,30.30,30.14,17,4,17,0.00
2013-5-11,99.0,76.0,57.7,69.4,59.7,52.8,90,61,30,30.25,30.11,14,3,14,0.00
2013-5-12,97.2,76.2,56.3,64.4,54.8,48.4,85,52,20,30.23,30.09,18,4,18,0.00
2013-5-13,97.0,75.3,55.0,65.2,55.6,47.6,80,53,33,30.18,30.01,15,3,15,0.00
2013-5-14,94.3,74.5,59.2,64.2,55.8,47.6,81,55,31,30.06,29.97,19,6,19,0.00
2013-5-15,81.3,67.6,55.2,53.9,48.7,43.8,66,52,37,30.14,30.03,23,10,23,0.00
2013-5-16,82.8,66.7,56.3,56.5,50.6,46.8,74,58,37,30.13,30.04,25,10,25,0.00
2013-5-17,80.6,64.6,51.1,52.5,46.5,40.8,81,55,31,30.18,30.07,24,7,24,0.00
2013-5-18,88.9,68.1,48.2,57.3,49.4,42.5,83,55,32,30.27,30.15,20,4,20,0.00
2013-5-19,90.3,73.3,53.2,49.6,40.6,24.7,78,36,10,30.26,30.09,20,6,20,0.00
2013-5-20,96.3,82.2,71.8,50.7,39.8,33.5,30,22,17,30.16,30.02,19,8,19,0.00
2013-5-21,99.5,75.8,61.3,54.3,41.0,32.0,63,30,11,30.02,29.88,17,6,17,0.00
2013-5-22,81.3,64.3,49.8,40.1,29.8,16.5,53,30,11,30.10,29.93,21,6,21,0.00
2013-6-25,86.4,65.3,45.9,52.7,48.1,44.8,99,61,26,30.19,30.03,7,2,7,0.00
2013-6-26,82.0,66.8,52.0,61.6,55.7,48.8,99,72,39,30.15,29.99,9,3,9,0.00
2013-6-27,90.7,71.6,57.4,73.6,65.6,57.1,99,83,56,30.02,29.83,6,2,6,0.00
2013-6-28,88.5,77.6,69.3,75.2,72.3,69.0,99,85,63,30.01,29.91,8,3,8,0.00
2013-6-29,90.0,78.4,71.8,76.3,74.4,71.5,99,89,62,30.11,30.00,12,4,12,0.00
2013-6-30,79.0,75.6,73.2,78.0,75.1,72.9,99,99,95,30.11,29.93,8,4,8,0.05
2013-7-1,99.0,76.7,56.8,76.4,68.2,53.5,99,79,39,30.02,29.88,11,3,11,0.04
2013-7-2,105.6,86.5,72.7,73.9,65.4,58.6,72,51,36,30.01,29.92,24,6,24,0.00
2013-7-3,109.8,87.8,69.4,77.4,67.1,58.6,74,52,34,30.03,29.85,16,3,16,0.00
2013-7-4,113.4,91.7,73.6,77.7,67.0,53.2,72,48,29,29.89,29.75,17,3,17,0.00
2013-7-5,88.0,76.4,65.5,61.9,55.7,48.1,67,49,36,29.87,29.77,23,8,23,0.00
2013-7-6,92.1,74.3,60.8,64.8,58.4,53.6,81,60,39,29.93,29.83,16,4,16,0.00
2013-7-7,98.1,76.7,57.7,65.3,54.0,36.5,84,52,13,29.98,29.88,17,4,17,0.00
2013-7-8,98.6,77.3,58.5,62.9,50.3,30.4,75,45,11,30.09,29.95,17,4,17,0.00
2013-7-9,105.3,82.0,59.4,64.8,56.8,49.6,79,48,16,30.18,30.05,14,2,14,0.00
2013-7-10,101.3,79.5,61.7,64.6,54.2,42.7,73,46,18,30.09,29.99,18,4,18,0.00
2013-7-11,94.1,72.8,54.9,62.3,54.1,46.6,77,54,32,30.06,29.95,21,5,21,0.00
2013-7-12,93.7,69.2,56.8,64.2,56.1,51.6,99,66,37,30.08,29.93,16,4,16,19.29
2013-7-13,100.0,77.4,58.5,63.8,55.5,49.6,82,52,19,30.07,29.96,16,3,16,0.00
2013-7-14,99.3,77.4,58.1,65.3,56.3,49.2,78,51,27,30.08,29.94,15,3,15,0.00
2013-7-15,90.9,71.5,57.0,62.2,54.2,49.3,81,57,36,29.98,29.87,24,6,24,0.00
2013-7-16,84.9,68.1,56.8,58.5,54.1,49.4,82,63,39,30.08,29.91,25,12,25,0.00
2013-7-17,95.7,73.7,54.1,66.1,57.9,49.6,94,62,36,30.22,30.08,11,2,11,0.00
2013-7-18,101.8,77.8,56.8,67.2,57.6,51.4,90,55,25,30.16,29.99,14,3,14,0.00
2013-7-19,104.7,80.3,59.5,68.6,59.7,52.6,83,53,28,30.04,29.85,17,2,17,0.00
2013-7-20,104.0,80.4,62.1,71.1,60.7,54.0,79,54,29,29.94,29.75,17,4,17,0.00
2013-7-21,99.9,79.2,62.2,68.1,58.6,51.7,78,52,33,29.93,29.80,24,8,24,0.00
2013-7-22,96.6,80.1,68.9,60.1,53.7,44.8,60,42,24,30.04,29.93,30,10,30,0.00
2013-7-23,95.2,80.4,70.0,62.7,56.0,48.0,59,44,30,30.11,30.00,18,5,18,0.00
2013-7-24,104.7,83.4,64.2,69.5,60.2,53.4,74,49,27,30.07,29.95,17,3,17,0.00
2013-7-25,103.6,82.5,66.2,70.9,60.8,53.8,72,50,32,30.06,29.97,17,3,17,0.00
2013-7-26,101.8,79.7,62.1,71.2,59.5,52.4,75,52,32,30.16,30.01,14,3,14,0.00
2013-7-27,96.8,76.8,59.5,67.0,59.4,53.0,82,57,36,30.08,29.88,19,4,19,0.00
2013-7-28,94.5,73.3,60.1,67.9,58.1,52.1,83,61,38,29.96,29.83,27,6,27,0.00
2013-7-29,83.7,68.5,57.6,61.2,55.5,51.6,82,65,46,30.07,29.87,27,12,27,0.00
2013-7-30,92.8,73.1,56.8,65.5,57.4,51.3,86,61,31,30.20,30.07,16,4,16,0.00
2013-7-31,93.9,73.3,58.5,64.6,56.1,51.8,81,57,32,30.17,30.04,24,6,24,0.00
2013-8-1,93.2,74.3,60.3,62.5,54.8,49.7,69,53,32,30.14,30.02,21,7,21,0.00
2013-8-2,96.6,75.9,57.9,64.4,56.5,50.2,79,54,28,30.09,29.96,14,3,14,0.00
2013-8-3,97.3,75.6,58.6,65.8,57.4,51.0,80,56,30,30.08,29.96,10,2,10,0.00
2013-8-4,93.7,72.7,57.2,64.3,56.1,49.7,80,58,36,30.09,30.00,18,4,18,0.00
2013-8-5,94.5,72.0,54.9,63.3,55.0,48.3,85,59,29,30.13,30.00,16,4,16,0.00
2013-8-6,79.0,61.7,54.3,76.4,53.1,48.1,99,74,53,30.10,29.74,21,5,21,19.29
2013-8-7,82.8,69.1,59.0,61.6,56.7,53.5,82,66,48,30.07,29.97,25,11,25,0.00
2013-8-8,89.8,70.6,55.8,64.6,56.7,51.6,89,64,38,30.02,29.89,22,4,22,0.00
2013-8-9,87.3,69.7,55.8,63.5,56.6,50.4,87,65,43,29.95,29.88,22,6,22,0.00
2013-8-10,91.9,72.2,56.8,66.3,58.5,52.1,88,64,42,30.04,29.94,19,4,19,0.00
2013-8-11,95.5,74.9,58.5,68.1,59.3,53.3,88,61,37,30.02,29.88,15,2,15,0.00
2013-8-12,96.4,75.5,59.2,65.1,56.7,51.4,81,56,28,29.99,29.89,18,3,18,0.00
2013-8-13,100.6,78.0,57.7,66.9,56.1,50.5,82,51,24,30.00,29.86,16,3,16,0.00
2013-8-14,101.5,79.2,61.0,67.1,58.4,51.1,75,52,31,29.96,29.84,14,2,14,0.00
2013-8-15,101.5,79.9,63.1,71.4,63.4,56.9,88,60,35,29.95,29.86,17,3,17,0.00
2013-8-16,102.6,81.2,65.1,73.0,63.5,53.7,88,58,34,29.98,29.88,17,3,17,0.00
2013-8-17,97.0,77.9,65.3,70.0,61.8,53.6,78,59,40,29.98,29.80,11,2,11,0.00
2013-8-18,105.1,82.7,62.6,74.9,65.1,57.7,85,58,35,29.89,29.75,11,2,11,0.00
2013-8-19,107.8,86.4,71.1,75.4,66.5,59.3,74,54,32,29.89,29.74,10,1,10,0.00
2013-8-20,100.8,83.1,70.9,72.0,63.2,52.6,69,52,37,29.87,29.75,17,4,17,0.00
2013-8-21,96.3,78.6,56.8,65.0,58.0,50.8,93,51,27,29.96,29.80,17,4,17,19.29
2013-8-22,92.3,74.7,61.2,63.3,55.6,49.6,73,53,35,30.00,29.90,19,5,19,0.00
2013-8-23,95.4,74.4,57.7,65.4,57.5,50.9,86,59,32,30.00,29.84,17,3,17,0.00
2013-8-24,94.5,75.2,60.4,63.8,57.7,51.7,79,57,33,29.94,29.86,23,5,23,0.00
2013-8-25,89.1,76.3,65.8,68.7,61.4,55.6,83,62,43,30.01,29.93,23,8,23,0.00
2013-8-26,95.5,75.5,61.7,66.6,60.0,53.8,89,62,37,30.08,29.95,20,5,20,0.00
2013-8-27,97.3,75.8,57.9,64.7,57.0,52.8,86,56,25,29.98,29.86,18,4,18,0.00
2013-8-28,99.1,78.1,61.5,68.2,60.7,53.3,81,58,36,29.99,29.90,17,3,17,0.00
2013-8-29,95.9,78.6,63.3,70.0,63.2,57.9,88,62,33,30.11,29.97,19,4,19,0.00
2013-8-30,102.7,80.5,62.4,70.4,62.4,56.4,91,58,31,30.13,29.97,14,2,14,0.00
2013-8-31,97.7,78.6,63.7,66.5,58.2,51.2,83,53,28,30.05,29.93,21,5,21,0.00
2013-9-1,95.4,76.2,64.8,65.4,58.3,53.5,73,56,28,30.01,29.92,21,7,21,0.00
2013-9-2,93.0,77.2,69.6,68.6,62.3,59.6,73,61,41,30.03,29.94,19,6,21,0.00
2013-9-3,89.6,74.4,60.6,63.9,58.2,55.6,85,60,34,30.07,29.97,21,5,21,0.00
2013-9-4,94.5,73.7,59.2,65.3,58.3,53.4,87,61,35,30.12,29.98,21,5,21,0.00
2013-9-5,92.1,74.8,62.2,63.5,57.8,53.4,81,59,31,30.08,29.99,22,7,22,0.00
2013-9-6,94.8,76.7,57.0,58.2,53.4,49.1,89,49,23,30.08,29.91,18,5,18,19.29
2013-9-7,104.2,80.1,59.9,63.5,53.1,46.7,66,42,20,29.98,29.85,13,2,13,0.00
2013-9-8,105.6,82.4,61.9,68.9,55.4,48.7,70,42,21,29.95,29.79,10,2,10,0.00
2013-9-9,107.1,84.1,63.5,67.0,57.5,51.6,71,44,26,29.88,29.72,13,3,13,0.00
2013-9-10,90.9,76.2,64.8,65.8,59.5,53.7,72,57,41,29.89,29.74,27,8,27,0.00
2013-9-11,86.7,72.0,58.1,65.6,59.5,53.6,86,66,47,30.05,29.89,19,7,19,0.00
2013-9-12,95.0,74.7,59.5,70.4,62.0,56.0,94,67,43,30.06,29.89,14,3,16,0.00
2013-9-13,96.6,77.0,62.6,68.4,61.0,54.7,85,60,39,29.96,29.76,16,4,16,0.00
2013-9-14,93.7,74.6,61.5,67.6,59.0,53.6,80,60,41,29.87,29.73,17,4,17,0.00
2013-9-15,91.8,72.7,58.5,63.6,57.6,53.4,84,62,36,29.90,29.77,22,8,22,0.00
2013-9-16,94.1,73.8,58.6,66.5,59.3,54.1,91,63,37,29.97,29.82,24,4,24,0.00
2013-9-17,88.3,72.1,59.7,61.1,56.0,52.2,84,60,36,29.95,29.83,28,7,28,0.00
2013-9-18,92.5,75.7,61.0,53.3,47.3,42.2,69,39,21,30.01,29.88,20,5,20,0.00
2013-9-19,97.0,74.6,55.0,60.2,48.2,41.5,70,42,25,29.95,29.80,11,2,11,0.00
2013-9-20,87.6,69.6,55.9,63.5,53.2,41.3,88,58,36,29.92,29.80,28,9,28,0.00
2013-9-21,72.9,63.1,49.5,69.7,61.5,46.3,99,95,82,29.99,29.89,22,6,22,0.67
2013-9-22,79.3,63.5,52.3,64.7,57.9,51.5,99,84,53,30.10,29.99,14,3,14,0.00
2013-9-23,88.3,70.2,55.0,67.6,60.7,54.8,99,75,43,30.12,29.99,12,2,14,0.00
2013-9-24,86.4,70.3,60.8,61.1,56.9,48.5,90,65,36,30.05,29.92,26,6,26,0.00
2013-9-25,79.9,66.4,56.7,52.9,48.3,43.2,68,53,34,30.02,29.88,15,5,15,0.01
2013-9-26,78.6,67.6,59.0,43.2,37.9,31.8,54,35,19,30.08,29.93,21,9,21,0.00
2013-9-27,81.7,69.9,59.4,45.3,38.6,34.1,48,33,22,30.20,30.08,18,5,18,0.00
2013-9-28,89.1,68.3,50.0,55.2,46.1,40.0,76,49,20,30.20,30.06,18,3,18,0.00
2013-9-29,78.4,67.4,59.0,65.0,60.0,53.4,91,78,60,30.21,30.11,21,5,21,0.00
2013-9-30,78.3,69.2,63.7,69.2,64.2,58.8,99,85,65,30.16,30.03,17,5,17,0.01
2013-10-1,81.3,65.7,50.4,59.6,53.3,46.8,92,67,42,30.11,29.99,13,2,13,0.00
2013-10-2,82.9,67.2,53.8,56.7,49.7,33.8,84,57,30,30.10,29.99,19,4,19,0.00
2013-10-3,76.6,67.5,58.5,36.3,33.6,30.3,42,29,21,30.16,30.05,29,12,29,0.00
2013-10-4,82.4,71.4,62.2,35.6,31.3,25.4,30,23,17,30.21,30.10,31,14,31,0.00
2013-10-5,87.6,71.6,59.2,47.3,32.2,23.5,43,24,17,30.32,30.20,15,4,15,0.00
2013-10-6,89.1,67.3,48.7,50.5,40.6,34.3,61,40,21,30.25,30.08,10,2,10,0.00
2013-10-7,91.4,69.3,51.8,50.3,41.2,37.0,59,39,18,30.11,29.93,11,2,11,0.00
2013-10-8,84.0,69.0,56.1,49.7,40.6,35.6,55,37,21,30.00,29.76,19,4,19,0.00
2013-10-9,78.1,64.1,50.4,45.9,40.3,35.2,75,45,27,29.84,29.70,22,6,22,0.00
2013-10-10,82.2,65.4,52.3,49.4,42.2,34.3,69,44,31,30.08,29.83,12,3,12,0.00
2013-10-11,80.6,62.4,48.4,54.2,46.4,41.3,81,58,36,30.18,29.87,12,2,12,0.00
2013-10-12,80.1,61.2,47.5,54.5,46.4,41.3,83,60,35,30.10,29.94,17,3,17,0.00
2013-10-13,79.0,66.4,55.4,48.4,40.3,36.7,68,40,25,30.15,29.98,17,6,17,0.00
2013-10-14,81.3,64.5,49.5,42.7,38.0,34.6,67,40,21,30.23,30.09,19,4,19,0.00
2013-10-15,82.8,66.0,49.1,37.2,34.2,31.7,54,33,18,30.16,30.04,21,6,21,0.00
2013-10-16,84.0,64.8,50.7,45.3,36.5,28.6,51,36,23,30.22,30.08,11,2,11,0.00
2013-10-17,87.1,65.3,49.3,51.7,39.9,35.1,60,41,23,30.19,30.04,8,1,8,0.00
2013-10-18,85.5,64.4,49.3,50.6,41.7,36.8,68,46,23,30.16,30.05,9,2,9,0.00
2013-10-19,88.0,65.4,48.7,53.0,43.3,37.3,71,47,25,30.19,30.08,7,1,7,0.00
2013-10-20,88.0,65.2,49.3,53.6,44.9,39.3,74,51,28,30.11,29.97,10,1,10,0.00
2013-10-21,85.5,64.3,49.5,52.7,46.6,40.9,79,55,31,30.09,29.98,7,1,7,0.00
2013-10-22,87.1,65.3,48.7,55.6,46.8,42.4,83,55,28,30.12,29.99,8,1,8,0.00
2013-10-23,86.7,64.1,48.9,54.3,46.7,41.9,83,56,30,30.05,29.93,10,2,10,0.00
2013-10-24,79.2,60.1,47.1,55.4,47.6,40.6,86,65,42,30.13,29.99,9,2,9,0.00
2013-10-25,80.1,60.2,45.5,54.7,47.4,40.9,91,65,37,30.27,30.13,8,2,8,0.00
2013-10-26,82.6,62.0,46.8,54.1,46.5,41.2,87,60,30,30.25,30.09,8,2,8,0.00
2013-10-27,67.5,55.9,47.8,53.1,45.8,39.0,83,69,48,30.09,29.66,34,10,34,0.00
2013-10-28,69.8,55.3,44.2,48.3,44.4,38.6,85,68,43,29.93,29.73,18,4,18,0.00
2013-10-29,65.3,56.0,48.6,52.6,46.8,43.3,91,73,53,30.15,29.92,10,2,10,0.00
2013-10-30,71.4,55.7,44.1,51.9,44.8,38.8,91,68,45,30.26,30.15,7,1,7,0.00
2013-10-31,76.5,57.2,43.9,51.7,44.1,39.0,90,64,36,30.28,30.17,7,1,7,0.00
2013-11-1,77.5,59.0,45.5,49.6,43.7,38.3,80,59,34,30.28,30.11,9,2,9,0.00
2013-11-2,79.7,59.0,44.2,54.8,44.4,33.5,80,60,35,30.12,29.94,14,2,14,0.00
2013-11-3,67.3,60.1,51.6,33.8,25.0,19.0,35,26,20,30.15,30.01,22,8,22,0.00
2013-11-4,72.0,62.3,54.3,29.6,26.8,24.1,32,26,18,30.17,30.00,24,10,24,0.00
2013-11-5,75.7,62.0,50.7,43.3,33.4,26.9,53,35,25,30.33,30.14,15,4,17,0.00
2013-11-6,74.3,58.4,47.1,42.1,36.7,33.0,59,46,28,30.40,30.27,6,2,7,0.00
2013-11-7,80.4,61.5,50.5,47.6,40.7,36.3,61,48,30,30.29,30.14,11,2,11,0.00
2013-11-8,81.0,60.1,46.6,54.2,44.8,37.7,78,59,37,30.18,30.02,10,2,10,0.00
2013-11-9,75.7,59.2,48.2,49.3,43.6,38.3,76,58,36,30.15,30.07,10,2,10,0.00
2013-11-10,76.5,56.5,45.7,51.7,43.3,38.3,83,63,39,30.22,30.13,8,2,8,0.00
2013-11-11,70.3,55.9,42.6,48.0,42.5,35.9,81,62,42,30.27,30.18,9,2,9,0.00
2013-11-12,75.4,60.8,51.3,51.4,44.8,39.8,69,57,35,30.37,30.24,8,1,8,0.00
2013-11-13,82.9,60.5,45.7,53.7,45.1,38.4,82,59,35,30.34,30.15,9,2,9,0.00
2013-11-14,70.3,56.4,48.2,55.0,47.2,42.6,86,72,53,30.18,29.92,5,1,5,0.00
2013-11-15,72.0,55.4,43.3,46.9,37.8,30.0,88,56,22,29.93,29.80,19,3,19,0.00
2013-11-16,70.3,54.1,44.4,47.3,42.2,34.8,81,66,37,30.01,29.82,13,2,13,0.00
2013-11-17,68.2,51.4,41.0,52.9,42.8,37.2,90,73,52,30.18,30.01,6,1,8,0.00
2013-11-18,63.3,51.8,41.2,50.5,44.0,36.3,92,75,52,30.25,30.16,18,5,18,0.00
2013-11-19,59.0,55.5,52.9,58.7,54.1,46.9,99,95,78,30.19,30.05,16,3,16,0.39
2013-11-20,59.2,56.3,53.8,58.9,56.1,53.5,99,99,99,30.05,29.92,14,2,14,0.19
2013-11-21,61.5,55.2,51.8,53.5,30.9,15.7,99,44,22,30.14,29.99,29,14,29,0.02
2013-11-22,71.1,59.4,51.3,27.8,16.1,7.8,40,19,12,30.14,30.01,31,16,31,0.01
2013-11-23,66.6,50.9,41.7,43.5,33.5,25.5,77,53,32,30.22,30.10,13,3,13,0.00
2013-11-24,64.4,49.0,39.2,48.8,40.9,34.3,89,74,52,30.36,30.21,7,2,7,0.00
2013-11-25,63.7,49.2,37.6,46.7,40.8,33.7,96,74,52,30.45,30.36,8,2,8,0.00
2013-11-26,63.0,50.5,39.9,41.6,39.0,35.8,90,67,44,30.39,30.17,10,2,10,0.00
2013-11-27,64.2,53.6,44.4,44.0,39.6,35.8,74,60,45,30.17,29.97,12,3,12,0.00
2013-11-28,72.0,55.6,43.9,45.1,41.0,36.8,82,60,34,30.17,29.98,11,2,11,0.00
2013-11-29,70.7,53.7,43.9,47.7,42.2,37.8,83,66,42,30.31,30.16,8,2,8,0.00
2013-11-30,69.3,52.2,42.8,49.9,42.3,37.1,84,70,47,30.39,30.29,8,1,8,0.00
2013-12-1,70.0,51.8,40.8,50.2,42.7,36.8,92,73,47,30.46,30.32,7,1,7,0.00
2013-12-2,68.0,52.2,39.2,55.1,45.7,36.2,99,80,53,30.33,29.99,13,3,13,0.00
2013-12-3,59.0,53.4,45.7,52.7,32.5,15.2,84,48,23,30.04,29.89,20,7,20,0.00
2013-12-4,51.6,43.3,33.4,17.9,11.6,5.9,44,28,16,30.19,30.04,17,6,17,0.00
2013-12-5,55.2,40.6,30.4,17.0,12.1,7.8,54,32,20,30.28,30.19,13,3,13,0.00
2013-12-6,45.9,36.7,26.6,41.8,26.2,14.9,99,67,44,30.32,30.00,8,2,8,0.59
2013-12-7,48.0,39.1,32.4,42.0,34.3,28.8,99,84,54,30.37,29.99,17,4,17,0.01
2013-12-8,44.6,36.2,31.1,30.5,21.5,14.3,93,57,36,30.45,30.34,16,6,16,0.00
2013-12-9,51.3,38.6,30.9,26.1,17.7,9.6,70,44,25,30.56,30.41,18,6,18,0.00
2013-12-10,54.1,37.2,27.9,28.3,23.4,19.0,71,59,33,30.55,30.32,12,3,12,0.00
2013-12-11,57.4,40.7,30.0,33.5,28.0,23.1,77,62,37,30.40,30.30,8,2,8,0.00
2013-12-12,60.3,42.8,30.9,37.2,30.7,24.8,83,64,39,30.40,30.27,10,2,10,0.00
2013-12-13,63.0,44.2,32.5,40.7,33.1,27.0,87,66,41,30.45,30.33,8,2,8,0.00
2013-12-14,59.9,43.9,33.6,39.8,33.9,29.0,89,69,44,30.54,30.42,10,2,10,0.00
2013-12-15,63.7,44.4,33.3,41.1,33.7,27.9,88,68,42,30.50,30.36,8,2,8,0.00
2013-12-16,64.2,45.3,34.5,42.4,34.9,29.3,88,69,40,30.38,30.25,8,2,8,0.00
2013-12-17,64.4,48.9,39.7,41.4,36.4,32.8,79,63,40,30.31,30.14,7,2,7,0.00
2013-12-18,64.9,47.9,40.1,46.4,38.1,33.3,81,70,49,30.15,29.89,9,2,9,0.00
2013-12-19,61.3,51.3,37.4,35.1,29.7,23.0,83,47,24,29.93,29.79,27,11,27,0.00
2013-12-20,66.9,52.3,39.9,21.3,18.7,12.4,47,30,12,30.08,30.03,11,3,11,0.00
2013-12-21,63.9,44.7,35.1,37.1,28.7,19.7,69,54,36,30.20,30.07,8,2,8,0.00
2013-12-22,64.6,44.4,34.9,40.4,33.0,27.6,83,66,40,30.41,30.20,13,3,13,0.00
2013-12-23,64.8,47.0,37.2,43.2,35.7,30.7,85,66,44,30.53,30.40,8,2,8,0.00
2013-12-24,69.6,48.7,40.1,45.5,37.4,33.3,82,66,38,30.44,30.31,14,2,14,0.00
2013-12-25,65.8,45.7,34.9,40.5,34.1,29.0,84,66,37,30.44,30.32,10,2,10,0.00
2013-12-26,68.0,46.3,34.2,39.0,30.9,26.4,79,57,29,30.38,30.29,9,2,9,0.00
2013-12-27,61.0,46.0,34.7,37.3,31.2,25.6,72,57,40,30.36,30.22,8,2,8,0.00
2013-12-28,72.0,49.5,31.6,38.0,27.0,18.5,82,49,19,30.25,30.11,18,4,18,0.00
2013-12-29,64.6,52.3,41.9,34.1,26.4,15.5,59,39,18,30.31,30.17,20,4,20,0.00
2013-12-30,64.0,46.2,34.9,37.5,29.6,22.5,67,53,37,30.38,30.30,8,2,8,0.00
2013-12-31,66.7,48.8,39.2,35.2,30.4,25.9,72,51,28,30.39,30.26,10,2,10,0.00
2014-1-1,65.7,45.8,33.8,35.8,29.5,24.0,75,54,30,30.33,30.23,5,1,6,0.00
2014-1-2,68.4,47.8,36.5,38.4,32.1,27.1,75,56,32,30.31,30.16,9,2,9,0.00